[[{"header":{"parameterUnit":"m.s-1","parameterCategory":1,"la1":30.2991,"la2":30.254,"lo1":-89.0895,"lo2":-89.0444,"dy":0.0017,"dx":0.0017,"nx":28,"ny":28,"refTime":"2024-03-29T21:00:00:Z","depth":0,"parameterNumber":2,"parameterNumberName":"U-component_of_WINDS"},"data":[0,0,0,0,0,0,0,0,0,0,0,0,0,0,0,0,0,0,0,0,0,0,0,0,0,0,0,0,0,0,0,0,0,0,0,0,0,0,0,0,0,0,0,0,0,0,0,0,0,0,0,0,0,0,0,0,0,0,-0.9732,-0.9732,0,-0.9759,-0.9759,-0.976,-0.9775,-0.9775,-0.9775,-0.9775,-0.9804,-0.9805,-0.9806,0,0,0,0,0,0,0,0,0,0,0,0,0,-0.9695,-0.9695,-0.9732,-0.9732,-0.9732,-0.9759,-0.9759,-0.976,-0.9775,-0.9775,-0.9775,-0.9775,-0.9804,-0.9805,-0.9806,0,0,0,0,0,0,0,0,0,0,0,0,0,-0.9715,-0.9696,-0.9732,-0.9743,-0.9745,-0.9759,-0.9759,-0.976,-0.9775,-0.9775,-0.9775,-0.9775,-0.9804,-0.9805,-0.9806,-0.9811,0,0,-0.9809,-0.9809,0,0,0,0,0,0,0,0,-0.9714,-0.9717,-0.9741,-0.9743,-0.9744,-0.9764,-0.9757,-0.9777,-0.9775,-0.9764,-0.9775,-0.9775,-0.9791,-0.9793,-0.9798,-0.9812,-0.9813,-0.9809,-0.981,-0.981,-0.9811,0,0,0,0,0,0,0,-0.9713,-0.9716,-0.9743,-0.9742,-0.9743,-0.9748,-0.9751,-0.9761,-0.9776,-0.9765,-0.9766,-0.9769,-0.9791,-0.9797,-0.9799,-0.9814,-0.9809,-0.981,-0.9811,-0.9811,-0.9834,-0.9834,0,0,0,0,0,0,-0.9709,-0.9714,-0.9742,-0.9743,-0.9729,-0.9748,-0.9752,-0.9757,-0.9776,-0.9779,-0.9769,-0.9769,-0.9795,-0.9797,-0.98,-0.9807,-0.981,-0.9811,-0.9812,-0.9834,-0.9834,-0.9834,0,0,0,0,0,0,-0.9708,-0.9712,-0.9741,-0.9729,-0.9733,-0.9749,-0.9755,-0.9758,-0.9763,-0.9779,-0.9782,-0.9771,-0.9795,-0.9798,-0.9808,-0.9808,-0.9812,-0.9813,-0.9834,-0.9834,-0.9834,-0.9821,0,0,0,0,0,0,-0.9707,-0.9711,-0.9713,-0.9729,-0.9734,-0.9748,-0.9755,-0.9758,-0.9765,-0.9766,-0.9782,-0.9785,-0.9795,-0.9806,-0.9809,-0.9809,-0.9814,-0.9834,-0.9834,-0.9834,-0.9821,-0.982,-0.982,0,0,0,0,0,-0.9706,-0.9708,-0.9713,-0.9716,-0.9736,-0.9748,-0.9751,-0.9762,-0.9765,-0.9767,-0.9777,-0.9785,-0.9807,-0.9807,-0.981,-0.9811,-0.9834,-0.9834,-0.9834,-0.9822,-0.9821,-0.982,0,0,0,0,0,0,-0.9692,-0.9711,-0.9716,-0.9724,-0.9734,-0.975,-0.9753,-0.976,-0.977,-0.9771,-0.9785,-0.9789,-0.9797,-0.9805,-0.9804,-0.9817,-0.9822,-0.9822,-0.9811,-0.981,-0.9809,-0.9807,-0.9814,0,0,0,0,0,-0.969,-0.9698,-0.9714,-0.9719,-0.9724,-0.9738,-0.9743,-0.9751,-0.9762,-0.9767,-0.9778,-0.9789,-0.9799,-0.9805,-0.9815,-0.9823,-0.9827,-0.9825,-0.9824,-0.9823,-0.9823,-0.9828,-0.9828,-0.9833,-0.9833,-0.9833,0,0,-0.9686,-0.9697,-0.9701,-0.9717,-0.9726,-0.9733,-0.9741,-0.9749,-0.9755,-0.9768,-0.9778,-0.9787,-0.98,-0.9809,-0.9813,-0.9816,-0.9823,-0.9823,-0.9822,-0.9823,-0.9828,-0.9827,-0.9827,-0.9833,-0.9833,-0.9833,0,0,-0.9682,-0.9691,-0.9697,-0.9705,-0.9719,-0.9728,-0.9729,-0.9745,-0.9751,-0.976,-0.977,-0.9778,-0.9794,-0.9804,-0.981,-0.981,-0.9817,-0.9813,-0.9808,-0.9812,-0.9812,-0.9812,-0.9811,-0.9811,-0.9813,-0.9813,-0.9813,0,-0.9676,-0.9687,-0.9699,-0.9706,-0.9713,-0.9725,-0.973,-0.9738,-0.9754,-0.9759,-0.9762,-0.9782,-0.9792,-0.9803,-0.9803,-0.9808,-0.981,-0.9811,-0.9811,-0.9811,-0.9811,-0.9811,-0.9811,-0.9812,-0.9813,-0.9813,-0.9813,0,-0.9678,-0.9686,-0.9689,-0.9704,-0.9711,-0.9717,-0.973,-0.9736,-0.9743,-0.9752,-0.9762,-0.9774,-0.9787,-0.979,-0.9797,-0.9802,-0.9803,-0.9808,-0.9813,-0.9809,-0.9809,-0.981,-0.9812,-0.9812,-0.9812,-0.9812,0,0,-0.9667,-0.9687,-0.9688,-0.9695,-0.9711,-0.9717,-0.9724,-0.9736,-0.9741,-0.9752,-0.9758,-0.9772,-0.9776,-0.9784,-0.9792,-0.9796,-0.9795,-0.9801,-0.9802,-0.9799,-0.9801,-0.9797,-0.9797,-0.98,-0.98,-0.98,-0.98,0,-0.9665,-0.9678,-0.9689,-0.9698,-0.9706,-0.9717,-0.9723,-0.9733,-0.9742,-0.975,-0.976,-0.9769,-0.9775,-0.978,-0.9784,-0.9794,-0.9796,-0.9795,-0.9806,-0.9807,-0.9802,-0.9797,-0.9793,-0.9792,-0.98,-0.98,-0.98,0,-0.9665,-0.9675,-0.9684,-0.9699,-0.9703,-0.9708,-0.972,-0.9727,-0.9739,-0.9745,-0.9754,-0.9762,-0.9771,-0.9775,-0.9787,-0.9786,-0.9791,-0.9797,-0.9798,-0.9799,-0.9803,-0.9798,-0.9792,-0.9791,-0.98,-0.98,-0.98,0,-0.9656,-0.9671,-0.9679,-0.9684,-0.9702,-0.9705,-0.9712,-0.9725,-0.9731,-0.9741,-0.9746,-0.9757,-0.9763,-0.9772,-0.9784,-0.9785,-0.9794,-0.9799,-0.98,-0.9799,-0.9801,-0.9801,-0.9795,-0.9805,-0.9805,-0.9805,-0.9805,0,-0.9653,-0.9658,-0.9675,-0.9679,-0.9686,-0.9698,-0.9705,-0.9713,-0.9724,-0.9731,-0.9742,-0.9748,-0.9763,-0.9771,-0.978,-0.9789,-0.9792,-0.9797,-0.9799,-0.9796,-0.9795,-0.98,-0.98,-0.9805,-0.9805,-0.9805,-0.9805,0,-0.9643,-0.9654,-0.9664,-0.9679,-0.9683,-0.9687,-0.9701,-0.9706,-0.9715,-0.9724,-0.9726,-0.9741,-0.9751,-0.9764,-0.9778,-0.9784,-0.9792,-0.9795,-0.9787,-0.9789,-0.9788,-0.9788,-0.9786,-0.9786,-0.9795,-0.9795,-0.9795,0,-0.964,-0.9645,-0.966,-0.9666,-0.9672,-0.9681,-0.9687,-0.97,-0.9706,-0.972,-0.9724,-0.9735,-0.9744,-0.976,-0.9772,-0.9783,-0.9787,-0.9785,-0.9789,-0.9785,-0.9787,-0.9786,-0.9787,-0.9784,-0.9784,-0.9784,-0.9784,0,-0.9634,-0.964,-0.9648,-0.9659,-0.9666,-0.9675,-0.9685,-0.9688,-0.9703,-0.971,-0.972,-0.9727,-0.9742,-0.9752,-0.9765,-0.9773,-0.9781,-0.9783,-0.9783,-0.978,-0.9775,-0.9777,-0.9785,-0.9783,-0.9783,-0.9783,-0.9783,-0.9783,-0.9628,-0.9632,-0.9644,-0.9653,-0.9662,-0.967,-0.9676,-0.9686,-0.9694,-0.9707,-0.9714,-0.9724,-0.9736,-0.9754,-0.9761,-0.977,-0.9773,-0.9774,-0.9774,-0.9774,-0.9773,-0.9774,-0.9772,-0.9772,-0.9772,-0.9772,-0.9772,0,-0.9622,-0.963,-0.9639,-0.9651,-0.9659,-0.9665,-0.9676,-0.9682,-0.969,-0.9701,-0.971,-0.9722,-0.9732,-0.9745,-0.9757,-0.9761,-0.9765,-0.9763,-0.9763,-0.9765,-0.977,-0.9768,-0.976,-0.976,-0.976,-0.976,-0.976,-0.976,-0.962,-0.9628,-0.9634,-0.9647,-0.9655,-0.9664,-0.967,-0.9678,-0.9687,-0.9699,-0.9708,-0.9716,-0.9727,-0.974,-0.975,-0.9753,-0.9757,-0.9755,-0.9759,-0.9763,-0.9764,-0.9766,-0.9764,-0.9755,-0.9755,-0.9754,-0.9754,-0.9754]},{"header":{"parameterUnit":"m.s-1","parameterCategory":1,"la1":30.2991,"la2":30.254,"lo1":-89.0895,"lo2":-89.0444,"dy":0.0017,"dx":0.0017,"nx":28,"ny":28,"refTime":"2024-03-29T21:00:00:Z","depth":0,"parameterNumber":3,"parameterNumberName":"V-component_of_WINDS"},"data":[0,0,0,0,0,0,0,0,0,0,0,0,0,0,0,0,0,0,0,0,0,0,0,0,0,0,0,0,0,0,0,0,0,0,0,0,0,0,0,0,0,0,0,0,0,0,0,0,0,0,0,0,0,0,0,0,0,0,1.6955,1.6956,0,1.7013,1.7013,1.7014,1.6995,1.6994,1.6992,1.6991,1.7049,1.7051,1.7054,0,0,0,0,0,0,0,0,0,0,0,0,0,1.6829,1.6831,1.6955,1.6956,1.6957,1.7012,1.7013,1.7014,1.6995,1.6993,1.6992,1.6991,1.7048,1.7051,1.7054,0,0,0,0,0,0,0,0,0,0,0,0,0,1.6884,1.6832,1.6955,1.6954,1.6954,1.7012,1.7013,1.7014,1.6995,1.6993,1.6992,1.699,1.7047,1.7051,1.7055,1.7117,0,0,1.7067,1.7069,0,0,0,0,0,0,0,0,1.6881,1.6889,1.6953,1.6954,1.6955,1.6995,1.699,1.7049,1.6996,1.698,1.6991,1.6989,1.7032,1.7037,1.7052,1.712,1.7122,1.7068,1.707,1.7072,1.7073,0,0,0,0,0,0,0,1.6877,1.6887,1.6978,1.6954,1.6955,1.695,1.6956,1.7001,1.7016,1.6981,1.698,1.6987,1.7032,1.7048,1.7053,1.7123,1.7067,1.7071,1.7074,1.7075,1.7244,1.7246,0,0,0,0,0,0,1.6873,1.6883,1.6976,1.698,1.6913,1.6954,1.6961,1.6984,1.7015,1.7018,1.6988,1.6986,1.7042,1.7049,1.7055,1.713,1.7072,1.7075,1.7078,1.7242,1.7244,1.7246,0,0,0,0,0,0,1.6871,1.6882,1.6974,1.6931,1.6943,1.6958,1.6984,1.6986,1.7002,1.7021,1.7023,1.7002,1.7041,1.705,1.7102,1.7132,1.7077,1.7081,1.7239,1.7242,1.7245,1.728,0,0,0,0,0,0,1.6867,1.6881,1.6905,1.6932,1.6945,1.702,1.6986,1.6988,1.7009,1.7006,1.7034,1.7037,1.704,1.7096,1.7106,1.7136,1.7084,1.7237,1.7241,1.7244,1.7276,1.7284,1.729,0,0,0,0,0,1.6863,1.6912,1.6906,1.6918,1.6975,1.7022,1.7029,1.7032,1.7011,1.7036,1.7048,1.7036,1.7127,1.7101,1.7112,1.7145,1.7235,1.724,1.7244,1.7273,1.7282,1.729,0,0,0,0,0,0,1.6889,1.6916,1.691,1.697,1.6993,1.7018,1.7049,1.7042,1.7071,1.7067,1.7069,1.7076,1.7129,1.7142,1.7113,1.7206,1.7178,1.7185,1.7196,1.7205,1.7212,1.7208,1.7087,0,0,0,0,0,1.6901,1.6937,1.6959,1.701,1.7022,1.7033,1.7054,1.7054,1.7078,1.7088,1.7104,1.7128,1.7162,1.7184,1.7216,1.7278,1.7283,1.7305,1.7312,1.7318,1.7324,1.7357,1.7367,1.7262,1.7262,1.7261,0,0,1.6928,1.6947,1.697,1.7015,1.7034,1.707,1.7042,1.7082,1.7108,1.7094,1.7144,1.7157,1.7183,1.7241,1.7266,1.7253,1.7354,1.7324,1.7328,1.7331,1.7363,1.7373,1.7382,1.7265,1.7264,1.7264,0,0,1.6995,1.7014,1.7058,1.7077,1.7105,1.7112,1.7123,1.7149,1.7157,1.7207,1.7197,1.7228,1.7287,1.7306,1.7324,1.7397,1.7388,1.7408,1.7445,1.7477,1.7485,1.7493,1.7519,1.7528,1.7414,1.7414,1.7414,0,1.7025,1.708,1.7082,1.7122,1.7142,1.7131,1.7175,1.7194,1.7231,1.7245,1.7229,1.7301,1.7319,1.738,1.7398,1.7412,1.7424,1.7405,1.7484,1.7491,1.7498,1.7523,1.7533,1.7416,1.7416,1.7416,1.7415,0,1.7115,1.7153,1.7185,1.7221,1.7245,1.7287,1.7295,1.7319,1.7316,1.7325,1.7376,1.7397,1.7432,1.7447,1.7445,1.7508,1.7498,1.7483,1.7455,1.7511,1.7534,1.7544,1.7419,1.7418,1.7418,1.7417,0,0,1.7201,1.7237,1.7249,1.7265,1.7295,1.7324,1.7366,1.7401,1.7421,1.7447,1.7481,1.753,1.7517,1.7536,1.7537,1.7565,1.7622,1.7546,1.7547,1.756,1.7692,1.7703,1.7714,1.7615,1.7617,1.7619,1.7689,0,1.727,1.7344,1.7346,1.7413,1.7448,1.7437,1.7473,1.7495,1.7504,1.7535,1.7544,1.7579,1.7558,1.757,1.7598,1.7609,1.7648,1.7604,1.7647,1.7649,1.7641,1.7726,1.7739,1.7804,1.7699,1.77,1.7701,0,1.7362,1.7391,1.7461,1.7485,1.75,1.7533,1.7565,1.7594,1.7618,1.7623,1.7645,1.7641,1.7682,1.7652,1.771,1.7679,1.7697,1.7705,1.7708,1.7712,1.7679,1.7733,1.7825,1.7835,1.7716,1.7715,1.7714,0,1.7417,1.7474,1.7523,1.7537,1.7567,1.759,1.7603,1.7626,1.7647,1.7674,1.7688,1.772,1.7738,1.7763,1.7767,1.7745,1.7824,1.7795,1.7829,1.7829,1.7847,1.7846,1.7943,1.7858,1.7858,1.7858,1.7857,0,1.7495,1.7539,1.7548,1.7579,1.7627,1.7629,1.7676,1.7688,1.7708,1.774,1.7732,1.7762,1.7766,1.7797,1.7801,1.7847,1.7855,1.786,1.786,1.7861,1.786,1.7873,1.7868,1.786,1.786,1.7859,1.7859,0,1.7566,1.7574,1.7627,1.7651,1.7657,1.7692,1.7712,1.7741,1.7749,1.7789,1.7799,1.7811,1.7847,1.7854,1.7896,1.7898,1.7954,1.795,1.7946,1.7946,1.798,1.7977,1.8089,1.8104,1.8009,1.801,1.801,0,1.7615,1.7648,1.7675,1.7696,1.7711,1.7745,1.7766,1.7769,1.7791,1.7821,1.7846,1.7881,1.791,1.7968,1.798,1.8012,1.8009,1.8046,1.8014,1.8013,1.8009,1.8007,1.8011,1.8052,1.8053,1.8054,1.8055,0,1.7701,1.7704,1.7735,1.7767,1.7792,1.7818,1.7842,1.786,1.7866,1.7891,1.7928,1.795,1.7993,1.8028,1.806,1.8073,1.8065,1.8065,1.8074,1.8075,1.8072,1.8074,1.7963,1.8062,1.8062,1.8061,1.8061,1.806,1.7763,1.7792,1.7815,1.785,1.7868,1.7891,1.7919,1.793,1.7961,1.7997,1.7996,1.8037,1.8059,1.8102,1.8117,1.8148,1.8136,1.815,1.8154,1.8157,1.816,1.8067,1.8154,1.8153,1.8153,1.8153,1.8153,0,1.7849,1.7864,1.7895,1.7929,1.7956,1.7946,1.7972,1.7996,1.8031,1.8053,1.8081,1.8123,1.8157,1.8172,1.8205,1.8227,1.8224,1.8235,1.8234,1.8237,1.8169,1.8158,1.8237,1.8237,1.8237,1.8237,1.8237,1.8237,1.7897,1.7945,1.795,1.8007,1.8021,1.8061,1.8076,1.8097,1.8115,1.8162,1.819,1.8199,1.8219,1.8253,1.8283,1.8286,1.8299,1.8312,1.8314,1.825,1.8242,1.8234,1.8223,1.8315,1.8315,1.8379,1.838,1.838]}]]